Date String (YYYY-MM-DD hh:mm:ss) UTC,Instrument flags,absolute air pressure of the measurement (hPa),sample flow rate (lpm),inlet stack bypass flow (lpm),air temperature of the measurement (°C),ambient temperature measured by the external sensor (°C),aerosol sample conditioner tube jacket temperature (°C),OPC LED temperature (°C),internal box temperature (°C),relative humidity of the measurement (%),span deviation,mass concentration of particles derived from Lorenz-Mie calculation of OPC scattering (μg/m³),mass concentration of particles derived from Lorenz-Mie calculation of OPC scattering (μg/m³),mass concentration of particles derived from Lorenz-Mie calculation of OPC scattering (μg/m³)
DateTimeUTC,F1_M11,P_M11,Q1_M11,Q2_M11,T1_M11,T2_M11,T3_M11,T4_M11,T5_M11,U1_M11,ZSPAN_M11,X0_M11,X2_M11,X1_M11
2024-03-06 06:00:00,SystemResetWarning,0824.5,5.00,000.00,018.8,018.1,000.0,027.2,020.5,18.6,0000.0,0014.31,0004.93,0003.80
2024-03-06 06:01:00,SystemResetWarning,0824.5,5.00,000.00,018.8,018.1,000.0,027.2,020.5,18.5,0000.0,0013.98,0004.92,0003.80
2024-03-06 06:02:00,SystemResetWarning,0824.5,5.02,000.00,018.8,018.1,000.0,027.2,020.4,18.5,0000.0,0014.00,0004.89,0003.80
2024-03-06 06:03:00,SystemResetWarning,0824.5,5.01,000.00,018.8,018.1,000.0,027.2,020.5,18.4,0000.0,0013.56,0004.80,0003.76
2024-03-06 06:04:00,SystemResetWarning,0824.5,4.99,000.00,018.8,018.1,000.0,027.2,020.4,18.3,0000.0,0014.81,0004.74,0003.73
2024-03-06 06:05:00,SystemResetWarning,0824.5,4.99,000.00,018.8,018.1,000.0,027.2,020.5,18.5,0000.0,0015.46,0004.72,0003.73
2024-03-06 06:06:00,SystemResetWarning,0824.4,5.00,000.00,018.8,018.1,000.0,027.2,020.5,18.6,0000.0,0015.30,0004.70,0003.72
2024-03-06 06:07:00,SystemResetWarning,0824.4,5.00,000.00,018.8,018.1,000.0,027.2,020.4,18.6,0000.0,0014.75,0004.70,0003.70
2024-03-06 06:08:00,SystemResetWarning,0824.4,5.00,000.00,018.8,018.1,000.0,027.2,020.4,18.8,0000.0,0014.73,0004.69,0003.68
2024-03-06 06:09:00,SystemResetWarning,0824.4,5.00,000.00,018.8,018.0,000.0,027.2,020.4,19.0,0000.0,0014.70,0004.68,0003.68
2024-03-06 06:10:00,SystemResetWarning,0824.4,5.00,000.00,018.8,018.0,000.0,027.2,020.4,19.0,0000.0,0014.23,0004.75,0003.69
2024-03-06 06:11:00,SystemResetWarning,0824.4,5.00,000.00,018.8,018.0,000.0,027.2,020.4,18.9,0000.0,0015.10,0004.80,0003.72
2024-03-06 06:12:00,SystemResetWarning,0824.4,5.00,000.00,018.8,018.0,000.0,027.2,020.4,18.4,0000.0,0015.16,0004.79,0003.72
2024-03-06 06:13:00,SystemResetWarning,0824.3,5.00,000.00,018.7,018.0,000.0,027.2,020.4,18.1,0000.0,0016.53,0004.76,0003.70
2024-03-06 06:14:00,SystemResetWarning,0824.4,5.00,000.00,018.7,018.0,000.0,027.2,020.4,18.1,0000.0,0016.85,0004.73,0003.67
2024-03-06 06:15:00,SystemResetWarning,0824.3,5.00,000.00,018.7,018.0,000.0,027.2,020.4,18.2,0000.0,0015.53,0004.66,0003.61
2024-03-06 06:16:00,SystemResetWarning,0824.3,5.00,000.00,018.7,018.0,000.0,027.2,020.4,18.5,0000.0,0014.48,0004.58,0003.55
2024-03-06 06:17:00,SystemResetWarning,0824.2,5.00,000.00,018.7,018.0,000.0,027.2,020.4,18.6,0000.0,0013.81,0004.49,0003.47
2024-03-06 06:18:00,SystemResetWarning,0824.2,5.00,000.00,018.7,018.0,000.0,027.2,020.4,18.6,0000.0,0013.60,0004.38,0003.41
2024-03-06 06:19:00,SystemResetWarning,0824.2,4.99,000.00,018.7,018.0,000.0,027.1,020.4,18.7,0000.0,0013.47,0004.31,0003.36
2024-03-06 06:20:00,SystemResetWarning,0824.2,4.99,000.00,018.7,018.0,000.0,027.1,020.3,18.7,0000.0,0013.41,0004.20,0003.30
2024-03-06 06:21:00,SystemResetWarning,0824.2,5.01,000.00,018.7,018.0,000.0,027.1,020.3,18.7,0000.0,0013.40,0004.09,0003.23
2024-03-06 06:22:00,SystemResetWarning,0824.1,5.01,000.00,018.7,018.0,000.0,027.1,020.3,18.7,0000.0,0012.81,0003.90,0003.10
2024-03-06 06:23:00,SystemResetWarning,0824.0,4.99,000.00,018.7,018.0,000.0,027.1,020.3,18.9,0000.0,0012.63,0003.79,0002.91
2024-03-06 06:24:00,SystemResetWarning,0824.0,4.99,000.00,018.7,017.9,000.0,027.1,020.4,19.0,0000.0,0012.04,0003.70,0002.73
2024-03-06 06:25:00,SystemResetWarning,0824.0,5.01,000.00,018.7,017.9,000.0,027.1,020.4,19.1,0000.0,0011.63,0003.59,0002.55
2024-03-06 06:26:00,SystemResetWarning,0824.0,5.01,000.00,018.7,017.9,000.0,027.1,020.4,19.1,0000.0,0011.87,0003.47,0002.40
2024-03-06 06:27:00,SystemResetWarning,0824.0,5.00,000.00,018.7,017.9,000.0,027.1,020.3,19.2,0000.0,0011.98,0003.38,0002.28
2024-03-06 06:28:00,SystemResetWarning,0824.0,4.99,000.00,018.7,017.9,000.0,027.1,020.3,19.1,0000.0,0012.22,0003.32,0002.20
2024-03-06 06:29:00,SystemResetWarning,0824.0,5.00,000.00,018.7,017.9,000.0,027.1,020.3,19.1,0000.0,0014.17,0003.30,0002.18
2024-03-06 06:30:00,SystemResetWarning,0824.0,5.00,000.00,018.6,017.9,000.0,027.1,020.3,19.1,0000.0,0014.57,0003.26,0002.16
2024-03-06 06:31:00,SystemResetWarning,0824.0,5.00,000.00,018.7,017.9,000.0,027.1,020.3,19.1,0000.0,0014.55,0003.23,0002.11
2024-03-06 06:32:00,SystemResetWarning,0824.0,5.00,000.00,018.7,018.0,000.0,027.1,020.3,19.0,0000.0,0014.73,0003.14,0002.02
2024-03-06 06:33:00,SystemResetWarning,0824.0,5.00,000.00,018.7,018.0,000.0,027.1,020.3,19.0,0000.0,0014.21,0003.05,0001.96
2024-03-06 06:34:00,SystemResetWarning,0824.0,5.00,000.00,018.7,018.0,000.0,027.0,020.3,18.9,0000.0,0014.06,0003.04,0001.92
2024-03-06 06:35:00,SystemResetWarning,0824.0,5.00,000.00,018.7,018.0,000.0,027.0,020.3,18.9,0000.0,0013.40,0002.93,0001.88
2024-03-06 06:36:00,SystemResetWarning,0824.0,5.00,000.00,018.7,018.0,000.0,027.0,020.3,18.7,0000.0,0013.17,0002.90,0001.89
2024-03-06 06:37:00,SystemResetWarning,0824.0,5.00,000.00,018.7,018.0,000.0,027.0,020.3,18.7,0000.0,0012.82,0002.91,0001.90
2024-03-06 06:38:00,SystemResetWarning,0824.0,5.01,000.00,018.7,018.0,000.0,027.0,020.3,18.6,0000.0,0012.85,0002.92,0001.90
2024-03-06 06:39:00,SystemResetWarning,0824.0,5.00,000.00,018.7,018.0,000.0,027.0,020.3,18.6,0000.0,0012.52,0002.82,0001.86
2024-03-06 06:40:00,SystemResetWarning,0824.0,5.00,000.00,018.7,018.0,000.0,027.0,020.3,18.3,0000.0,0010.21,0002.63,0001.74
2024-03-06 06:41:00,SystemResetWarning,0824.0,5.00,000.00,018.7,018.0,000.0,027.0,020.3,18.2,0000.0,0009.78,0002.50,0001.62
2024-03-06 06:42:00,SystemResetWarning,0823.9,4.98,000.00,018.7,018.1,000.0,027.0,020.3,18.2,0000.0,0008.96,0002.36,0001.53
2024-03-06 06:43:00,SystemResetWarning,0823.9,5.00,000.00,018.7,018.1,000.0,027.0,020.3,18.3,0000.0,0008.23,0002.32,0001.47
2024-03-06 06:44:00,SystemResetWarning,0823.8,5.00,000.00,018.7,018.1,000.0,027.0,020.3,18.3,0000.0,0008.21,0002.29,0001.43
2024-03-06 06:45:00,SystemResetWarning,0823.8,5.00,000.00,018.7,018.1,000.0,027.0,020.4,18.3,0000.0,0008.07,0002.16,0001.37
2024-03-06 06:46:00,SystemResetWarning,0823.8,5.00,000.00,018.7,018.1,000.0,027.0,020.3,18.3,0000.0,0007.79,0002.09,0001.31
2024-03-06 06:47:00,SystemResetWarning,0823.8,5.01,000.00,018.7,018.1,000.0,027.0,020.3,18.3,0000.0,0007.85,0002.06,0001.27
2024-03-06 06:48:00,SystemResetWarning,0823.8,5.01,000.00,018.7,018.1,000.0,027.0,020.3,18.2,0000.0,0007.79,0002.01,0001.22
2024-03-06 06:49:00,SystemResetWarning,0823.8,5.00,000.00,018.7,018.1,000.0,027.0,020.3,18.2,0000.0,0007.60,0002.00,0001.19
2024-03-06 06:50:00,SystemResetWarning,0823.8,5.00,000.00,018.7,018.1,000.0,027.0,020.4,18.3,0000.0,0007.35,0001.96,0001.16
2024-03-06 06:51:00,SystemResetWarning,0823.8,5.00,000.00,018.7,018.1,000.0,027.0,020.4,18.3,0000.0,0007.33,0001.98,0001.15
2024-03-06 06:52:00,SystemResetWarning,0823.8,5.00,000.00,018.7,018.1,000.0,027.1,020.4,18.2,0000.0,0005.39,0001.94,0001.19
2024-03-06 06:53:00,SystemResetWarning,0823.7,4.99,000.00,018.7,018.1,000.0,027.1,020.4,18.2,0000.0,0005.20,0002.05,0001.26
2024-03-06 06:54:00,SystemResetWarning,0823.8,4.99,000.00,018.7,018.1,000.0,027.1,020.3,18.2,0000.0,0005.36,0002.15,0001.33
2024-03-06 06:55:00,SystemResetWarning,0823.8,5.01,000.00,018.7,018.1,000.0,027.0,020.3,18.2,0000.0,0005.68,0002.27,0001.42
2024-03-06 06:56:00,SystemResetWarning,0823.8,5.02,000.00,018.7,018.1,000.0,027.0,020.4,18.3,0000.0,0007.15,0002.57,0001.58
2024-03-06 06:57:00,SystemResetWarning,0823.8,5.00,000.00,018.7,018.1,000.0,027.0,020.3,18.3,0000.0,0008.00,0002.89,0001.76
2024-03-06 06:58:00,SystemResetWarning,0823.8,5.00,000.00,018.7,018.1,000.0,027.0,020.4,18.3,0000.0,0008.03,0003.13,0001.94
2024-03-06 06:59:00,SystemResetWarning,0823.7,4.99,000.00,018.7,018.1,000.0,027.0,020.4,18.2,0000.0,0008.04,0003.21,0002.05
